QPF
0.00 0.00 0.00 0.00 0.00 0.00 0.00 0.00 0.00 0.00 0.00 0.00 0.00 0.00 0.00 0.00 0.00 0.00 0.00 0.00 0.00 0.00 0.00 0.00 0.00 0.00 0.00 0.00 0.00 0.00 0.00 0.00 0.00 0.00 0.00 0.00 0.00 0.00 0.00 0.00 0.00 0.00 0.00 0.00
0.00 0.00 0.00 0.00 0.00 0.00 0.00 0.00 0.00 0.00 0.00 0.00 0.00 0.00 0.00 0.00 0.00 0.00 0.00 0.00 0.00 0.00 0.00 0.00 0.00 0.00 0.00 0.00 0.00 0.00 0.00 0.00 0.00 0.00 0.00 0.00 0.00 0.00 0.00 0.00 0.00 0.00 0.00 0.00
0.00 0.00 0.00 0.00 0.00 0.00 0.00 0.00 0.00 0.00 0.00 0.00 0.00 0.00 0.00 0.00 0.00 0.00 0.00 0.00 0.00 0.00 0.00 0.00 0.00 0.00 0.00 0.00 0.00 0.00 0.00 0.00 0.00 0.00 0.00 0.00 0.00 0.00 0.00 0.00 0.00 0.00 0.00 0.00
0.00 0.00 0.00 0.00 0.00 0.00 0.00 0.00 0.00 0.00 0.00 0.00 0.00 0.00 0.00 0.00 0.00 0.00 0.00 0.00 0.00 0.00 0.00 0.00 0.00 0.00 0.00 0.00 0.00 0.00 0.00 0.00 0.00 0.00 0.00 0.00 0.00 0.00 0.00 0.00 0.00 0.00 0.00 0.00
0.00 0.00 0.00 0.00 0.00 0.00 0.00 0.00 0.00 0.00 0.00 0.00 0.00 0.00 0.00 0.00 0.00 0.00 0.00 0.00 0.00 0.00 0.00 0.00 0.00 0.00 0.00 0.00 0.00 0.00 0.00 0.00 0.00 0.00 0.00 0.00 0.00 0.00 0.00 0.00 0.00 0.00 0.00 0.00
0.00 0.00 0.00 0.00 0.00 0.00 0.00 0.00 0.00 0.00 0.00 0.00 0.00 0.00 0.00 0.00 0.00 0.00 0.00 0.00 0.00 0.00 0.00 0.00 0.00 0.00 0.00 0.00 0.00 0.00 0.00 0.00 0.00 0.00 0.00 0.00 0.00 0.00 0.00 0.00 0.00 0.00 0.00 0.00
0.00 0.00 0.00 0.00 0.00 0.00 0.00 0.00 0.00 0.00 0.00 0.00 0.00 0.00 0.00 0.00 0.00 0.00 0.00 0.00 0.00 0.00 0.00 0.00 0.00 0.00 0.00 0.00 0.00 0.00 0.00 0.00 0.00 0.00 0.00 0.00 0.00 0.00 0.00 0.00 0.00 0.00 0.00 0.00
0.00 0.00 0.00 0.00 0.00 0.00 0.00 0.00 0.00 0.00 0.00 0.00 0.00 0.00 0.00 0.00 0.00 0.00 0.00 0.00 0.00 0.00 0.00 0.00 0.00 0.00 0.00 0.00 0.00 0.00 0.00 0.00 0.00 0.00 0.00 0.00 0.00 0.00 0.00 0.00 0.00 0.00 0.00 0.00
0.00 0.00 0.00 0.00 0.00 0.00 0.00 0.00 0.00 0.00 0.00 0.00 0.00 0.00 0.00 0.00 0.00 0.00 0.00 0.00 0.00 0.00 0.00 0.00 0.00 0.00 0.00 0.00 0.00 0.00 0.00 0.00 0.00 0.00 0.00 0.00 0.00 0.00 0.00 0.00 0.00 0.00 0.00 0.00
0.00 0.00 0.00 0.00 0.00 0.00 0.00 0.00 0.00 0.00 0.00 0.00 0.00 0.00 0.00 0.00 0.00 0.00 0.00 0.00 0.00 0.00 0.00 0.00 0.00 0.00 0.00 0.00 0.00 0.00 0.00 0.00 0.00 0.00 0.00 0.00 0.00 0.00 0.00 0.00 0.00 0.00 0.00 0.00
0.00 0.00 0.00 0.00 0.00 0.00 0.00 0.00 0.00 0.00 0.00 0.00 0.00 0.00 0.00 0.00 0.00 0.00 0.00 0.00 0.00 0.00 0.00 0.00 0.00 0.00 0.00 0.00 0.00 0.00 0.00 0.00 0.00 0.00 0.00 0.00 0.00 0.00 0.00 0.00 0.00 0.00 0.00 0.00
0.00 0.00 0.00 0.00 0.00 0.00 0.00 0.00 0.00 0.00 0.00 0.00 0.00 0.00 0.00 0.00 0.00 0.00 0.00 0.00 0.00 0.00 0.00 0.00 0.00 0.00 0.00 0.00 0.00 0.00 0.00 0.00 0.00 0.00 0.00 0.00 0.00 0.00 0.00 0.00 0.00 0.00 0.00 0.00
0.00 0.00 0.00 0.00 0.00 0.00 0.00 0.00 0.00 0.00 0.00 0.00 0.00 0.00 0.00 0.00 0.00 0.00 0.00 0.00 0.00 0.00 0.00 0.00 0.00 0.00 0.00 0.00 0.00 0.00 0.00 0.00 0.00 0.00 0.00 0.00 0.00 0.00 0.00 0.00 0.00 0.00 0.00 0.00
0.00 0.00 0.00 0.00 0.00 0.00 0.00 0.00 0.00 0.00 0.00 0.00 0.00 0.00 0.00 0.00 0.00 0.00 0.00 0.00 0.00 0.00 0.00 0.00 0.00 0.00 0.00 0.00 0.00 0.00 0.00 0.00 0.00 0.00 0.00 0.00 0.00 0.00 0.00 0.00 0.00 0.00 0.00 0.00
0.00 0.00 0.00 0.00 0.00 0.00 0.00 0.00 0.00 0.00 0.00 0.00 0.00 0.00 0.00 0.00 0.00 0.00 0.00 0.00 0.00 0.00 0.00 0.00 0.00 0.00 0.00 0.00 0.00 0.00 0.00 0.00 0.00 0.00 0.00 0.00 0.00 0.00 0.00 0.00 0.00 0.00 0.00 0.00
0.00 0.00 0.00 0.00 0.00 0.00 0.00 0.00 0.00 0.00 0.00 0.00 0.00 0.00 0.00 0.00 0.00 0.00 0.00 0.00 0.00 0.00 0.00 0.00 0.00 0.00 0.00 0.00 0.00 0.00 0.00 0.00 0.00 0.00 0.00 0.00 0.00 0.00 0.00 0.00 0.00 0.00 0.00 0.00
0.00 0.00 0.00 0.00 0.00 0.00 0.00 0.00 0.00 0.00 0.00 0.00 0.00 0.00 0.00 0.00 0.00 0.00 0.00 0.00 0.00 0.00 0.00 0.00 0.00 0.00 0.00 0.00 0.00 0.00 0.00 0.00 0.00 0.00 0.00 0.00 0.00 0.00 0.00 0.00 0.00 0.00 0.00 0.00
0.00 0.00 0.00 0.00 0.00 0.00 0.00 0.00 0.00 0.00 0.00 0.00 0.00 0.00 0.00 0.00 0.00 0.00 0.00 0.00 0.00 0.00 0.00 0.00 0.00 0.00 0.00 0.00 0.00 0.00 0.00 0.00 0.00 0.00 0.00 0.00 0.00 0.00 0.00 0.00 0.00 0.00 0.00 0.00
0.00 0.00 0.00 0.00 0.00 0.00 0.00 0.00 0.00 0.00 0.00 0.00 0.00 0.00 0.00 0.00 0.00 0.00 0.00 0.00 0.00 0.00 0.00 0.00 0.00 0.00 0.00 0.00 0.00 0.00 0.00 0.00 0.00 0.00 0.00 0.00 0.00 0.00 0.00 0.00 0.00 0.00 0.00 0.00
0.00 0.00 0.00 0.00 0.00 0.00 0.00 0.00 0.00 0.00 0.00 0.00 0.00 0.00 0.00 0.00 0.00 0.00 0.00 0.00 0.00 0.00 0.00 0.00 0.00 0.00 0.00 0.00 0.00 0.00 0.00 0.00 0.00 0.00 0.00 0.00 0.00 0.00 0.00 0.00 0.00 0.00 0.00 0.00
0.00 0.00 0.00 0.00 0.00 0.00 0.00 0.00 0.00 0.00 0.00 0.00 0.00 0.00 0.00 0.00 0.00 0.00 0.00 0.00 0.00 0.00 0.00 0.00 0.00 0.00 0.00 0.00 0.00 0.00 0.00 0.00 0.00 0.00 0.00 0.00 0.00 0.00 0.00 0.00 0.00 0.00 0.00 0.00
0.00 0.00 0.00 0.00 0.00 0.00 0.00 0.00 0.00 0.00 0.00 0.00 0.00 0.00 0.00 0.00 0.00 0.00 0.00 0.00 0.00 0.00 0.00 0.00 0.00 0.00 0.00 0.00 0.00 0.00 0.00 0.00 0.00 0.00 0.00 0.00 0.00 0.00 0.00 0.00 0.00 0.00 0.00 0.00
0.00 0.00 0.00 0.00 0.00 0.00 0.00 0.00 0.00 0.00 0.00 0.00 0.00 0.00 0.00 0.00 0.00 0.00 0.00 0.00 0.00 0.00 0.00 0.00 0.00 0.00 0.00 0.00 0.00 0.00 0.00 0.00 0.00 0.00 0.00 0.00 0.00 0.00 0.00 0.00 0.00 0.00 0.00 0.00
0.00 0.00 0.00 0.00 0.00 0.00 0.00 0.00 0.00 0.00 0.00 0.00 0.00 0.00 0.00 0.00 0.00 0.00 0.00 0.00 0.00 0.00 0.00 0.00 0.00 0.00 0.00 0.00 0.00 0.00 0.00 0.00 0.00 0.00 0.00 0.00 0.00 0.00 0.00 0.00 0.00 0.00 0.00 0.00
0.00 0.00 0.00 0.00 0.00 0.00 0.00 0.00 0.00 0.00 0.00 0.00 0.00 0.00 0.00 0.00 0.00 0.00 0.00 0.00 0.00 0.00 0.00 0.00 0.00 0.00 0.00 0.00 0.00 0.00 0.00 0.00 0.00 0.00 0.00 0.00 0.00 0.00 0.00 0.00 0.00 0.00 0.00 0.00
0.00 0.00 0.00 0.00 0.00 0.00 0.00 0.00 0.00 0.00 0.00 0.00 0.00 0.00 0.00 0.00 0.00 0.00 0.00 0.00 0.00 0.00 0.00 0.00 0.00 0.00 0.00 0.00 0.00 0.00 0.00 0.00 0.00 0.00 0.00 0.00 0.00 0.00 0.00 0.00 0.00 0.00 0.00 0.00
MSLP
1017.25 1017.75 1017.82 1017.58 1017.88 1017.67 1017.79 1017.90 1017.68 1017.09 1016.88 1017.47 1017.71 1017.68 1017.66 1017.91 1018.57 1018.84 1019.38 1019.70 1020.21 1020.73 1021.42 1021.95 1022.38 1022.76 1022.98 1023.07 1023.18 1023.36 1023.67 1024.00 1024.04 1024.41 1024.77 1025.38 1026.04 1026.67 1026.89 1027.30 1027.56 1027.66 1027.82 1028.04
1017.97 1017.57 1017.03 1017.41 1017.69 1017.92 1017.86 1017.88 1017.54 1017.17 1017.05 1017.61 1017.57 1017.54 1017.11 1017.24 1017.13 1017.18 1017.64 1018.42 1019.18 1020.33 1021.23 1021.76 1022.19 1022.52 1022.73 1022.78 1022.83 1023.05 1023.29 1023.72 1024.03 1024.27 1024.85 1025.45 1026.49 1027.39 1027.58 1027.83 1028.19 1028.32 1028.55 1028.71
1017.30 1016.62 1016.21 1017.21 1017.41 1017.75 1017.64 1017.58 1017.53 1017.68 1017.60 1017.76 1017.83 1017.28 1016.80 1015.90 1015.80 1015.89 1016.35 1016.92 1017.98 1018.95 1020.15 1021.19 1021.85 1022.31 1022.48 1022.58 1022.66 1022.75 1023.04 1023.50 1023.95 1024.43 1025.14 1026.08 1027.03 1027.78 1028.13 1028.42 1028.67 1029.14 1029.10 1029.30
1016.97 1016.30 1016.37 1016.88 1017.00 1017.29 1017.31 1017.02 1017.26 1017.77 1018.46 1018.42 1018.08 1016.61 1015.98 1015.37 1015.23 1015.22 1015.16 1015.94 1016.94 1018.36 1019.54 1020.42 1021.38 1022.08 1022.26 1022.34 1022.37 1022.66 1022.98 1023.45 1024.06 1024.49 1025.31 1025.87 1026.67 1027.70 1028.69 1028.74 1029.26 1029.53 1029.68 1029.86
1015.52 1015.76 1016.20 1016.45 1016.28 1016.72 1016.99 1017.04 1017.58 1018.09 1018.75 1019.03 1018.68 1018.36 1014.88 1014.69 1014.54 1014.08 1013.78 1014.91 1016.02 1017.24 1018.47 1019.68 1020.65 1021.53 1022.06 1022.29 1022.44 1022.76 1023.10 1023.54 1024.07 1024.66 1025.37 1026.09 1027.11 1027.97 1028.62 1029.12 1029.59 1030.10 1030.39 1030.40
1015.34 1015.28 1015.47 1015.56 1016.20 1016.32 1017.10 1017.71 1018.54 1019.12 1019.69 1019.44 1018.51 1018.43 1013.84 1014.08 1012.93 1012.64 1013.12 1014.33 1015.70 1017.03 1018.25 1019.28 1020.27 1021.11 1021.91 1022.37 1022.66 1022.96 1023.26 1023.76 1024.11 1024.63 1025.42 1026.08 1026.87 1027.95 1028.74 1029.44 1029.87 1030.36 1030.59 1030.68
1015.55 1015.32 1015.26 1015.31 1016.24 1016.68 1017.04 1018.33 1019.79 1020.60 1020.85 1018.86 1017.78 1017.53 1013.28 1012.90 1012.21 1012.17 1012.76 1013.81 1015.21 1016.47 1017.79 1018.90 1019.89 1020.83 1021.64 1022.27 1022.75 1023.20 1023.38 1023.92 1024.22 1024.79 1025.57 1026.30 1027.06 1027.69 1028.24 1028.86 1029.40 1029.99 1030.52 1030.91
1015.04 1015.19 1014.85 1014.79 1014.88 1015.67 1016.83 1017.46 1018.68 1019.62 1020.41 1019.33 1018.40 1016.13 1012.88 1011.76 1011.54 1011.91 1012.31 1013.12 1014.67 1016.17 1017.29 1018.31 1019.29 1020.48 1021.44 1022.12 1022.63 1023.08 1023.46 1023.97 1024.35 1024.83 1025.55 1026.32 1026.98 1027.58 1028.22 1028.68 1029.38 1030.01 1030.49 1030.93
1014.27 1014.19 1013.79 1014.11 1014.51 1014.93 1016.82 1017.12 1017.34 1018.98 1020.32 1019.87 1017.09 1014.58 1012.69 1012.12 1012.05 1012.38 1012.69 1013.51 1014.55 1015.56 1016.63 1017.94 1019.11 1020.04 1020.99 1021.83 1022.45 1022.90 1023.41 1023.95 1024.35 1024.87 1025.60 1026.39 1027.03 1027.58 1028.16 1028.87 1029.37 1029.90 1030.62 1031.13
1013.04 1013.91 1014.41 1014.66 1014.60 1015.30 1015.56 1016.32 1017.87 1019.17 1020.08 1018.91 1016.10 1014.33 1012.25 1011.98 1011.98 1012.40 1013.16 1013.84 1014.81 1015.79 1016.84 1017.75 1018.63 1019.65 1020.67 1021.54 1022.25 1022.84 1023.31 1023.71 1024.20 1024.81 1025.48 1026.19 1026.88 1027.47 1028.08 1028.61 1029.39 1030.04 1030.68 1031.32
1012.64 1013.38 1015.10 1015.16 1014.71 1014.51 1015.49 1015.84 1016.39 1017.13 1018.04 1017.48 1015.77 1011.75 1010.20 1010.24 1010.53 1011.58 1012.44 1013.12 1013.97 1015.13 1016.19 1017.25 1018.33 1019.37 1020.30 1021.31 1022.09 1022.71 1023.24 1023.69 1024.35 1024.97 1025.63 1026.32 1026.95 1027.41 1027.85 1028.41 1029.23 1029.95 1030.45 1031.04
1011.74 1012.90 1014.55 1014.59 1014.28 1014.32 1013.99 1014.23 1014.78 1015.67 1016.25 1016.02 1015.00 1008.28 1009.47 1009.59 1010.18 1010.90 1011.70 1012.66 1013.59 1014.49 1015.68 1016.81 1017.78 1018.93 1019.96 1020.81 1021.60 1022.22 1022.84 1023.41 1024.04 1024.70 1025.42 1026.11 1026.61 1027.22 1027.98 1028.82 1029.42 1029.91 1030.09 1030.68
1011.35 1012.46 1013.86 1014.29 1014.74 1014.39 1014.07 1014.00 1013.33 1013.75 1014.58 1013.34 1014.40 1007.42 1009.28 1009.24 1009.90 1010.60 1011.61 1012.50 1013.22 1014.15 1015.26 1016.40 1017.45 1018.25 1019.23 1020.15 1021.03 1021.82 1022.63 1023.31 1023.86 1024.49 1025.22 1026.01 1026.64 1027.33 1028.20 1028.92 1029.41 1029.72 1030.10 1030.73
1010.00 1011.19 1011.26 1010.89 1011.35 1012.27 1013.41 1013.00 1013.08 1013.35 1013.07 1012.25 1010.11 1008.42 1009.21 1009.36 1010.00 1010.70 1011.40 1012.02 1012.96 1013.84 1014.69 1015.65 1016.63 1017.43 1018.47 1019.45 1020.41 1021.34 1022.05 1022.66 1023.41 1024.15 1024.89 1025.70 1026.46 1027.13 1027.84 1028.57 1029.04 1029.42 1029.88 1030.51
1009.77 1010.66 1011.08 1010.40 1010.84 1011.26 1011.43 1011.56 1011.94 1011.85 1009.80 1011.21 1006.36 1008.51 1008.19 1008.84 1009.33 1009.69 1010.75 1011.91 1012.73 1013.40 1014.08 1014.54 1015.37 1016.32 1017.60 1018.76 1019.72 1020.61 1021.43 1022.10 1022.86 1023.79 1024.56 1025.19 1025.97 1026.72 1027.46 1028.22 1028.73 1029.29 1029.80 1030.23
1009.78 1010.12 1010.86 1010.47 1010.72 1010.96 1011.38 1011.13 1010.27 1010.17 1009.83 1009.64 1008.50 1006.35 1007.31 1007.75 1008.47 1009.50 1009.87 1010.70 1011.44 1011.89 1012.43 1013.40 1014.58 1015.67 1016.60 1017.61 1018.67 1019.78 1020.73 1021.63 1022.40 1023.23 1023.90 1024.79 1025.68 1026.34 1026.98 1027.62 1028.26 1029.03 1029.56 1030.16
1009.91 1010.51 1011.22 1009.91 1010.47 1011.12 1010.90 1007.60 1009.42 1009.04 1008.50 1008.30 1008.05 1003.79 1007.62 1007.81 1008.29 1008.79 1009.28 1009.67 1009.98 1010.36 1010.94 1012.01 1012.99 1014.17 1015.37 1016.48 1017.67 1018.79 1019.86 1021.03 1022.00 1022.71 1023.38 1024.20 1025.08 1025.92 1026.60 1027.40 1028.12 1028.56 1029.23 1029.77
1009.85 1010.66 1010.79 1009.80 1010.34 1009.08 1005.77 1006.00 1006.60 1007.36 1006.40 1007.24 1006.74 1005.61 1006.83 1007.03 1007.37 1007.36 1007.76 1008.44 1008.94 1009.49 1010.05 1011.06 1012.06 1013.48 1014.73 1015.90 1017.20 1018.47 1019.52 1020.51 1021.41 1022.20 1022.95 1023.66 1024.54 1025.50 1026.37 1027.06 1027.60 1028.23 1028.72 1029.09
1008.82 1009.81 1009.69 1009.41 1008.52 1007.44 1006.25 1006.22 1006.36 1006.91 1005.36 1005.79 1005.82 1005.52 1006.35 1007.02 1007.65 1007.18 1007.42 1007.52 1007.88 1008.82 1009.42 1010.06 1011.17 1012.26 1013.85 1015.07 1016.32 1017.60 1018.74 1019.66 1020.69 1021.48 1022.25 1023.07 1023.86 1024.80 1025.63 1026.35 1026.86 1027.40 1028.25 1028.80
1008.88 1008.56 1008.87 1008.68 1007.85 1006.84 1005.43 1005.42 1005.44 1006.21 1005.72 1005.37 1005.47 1005.36 1005.86 1007.56 1008.32 1006.39 1007.53 1007.82 1008.16 1008.69 1009.38 1010.32 1011.51 1012.59 1013.47 1014.53 1015.81 1017.10 1018.23 1019.01 1019.72 1020.42 1021.21 1022.15 1023.05 1023.76 1024.70 1025.32 1026.20 1026.81 1027.34 1027.90
1008.95 1008.59 1008.03 1007.85 1007.18 1006.88 1006.46 1006.57 1006.56 1007.02 1006.36 1006.24 1006.34 1006.45 1006.96 1007.50 1007.26 1007.17 1007.51 1008.36 1008.76 1009.39 1009.90 1010.74 1011.69 1012.75 1013.19 1014.38 1015.51 1016.87 1017.66 1018.33 1018.89 1019.98 1021.01 1021.91 1022.95 1023.44 1024.00 1024.86 1025.67 1026.29 1027.04 1027.63
1008.05 1008.32 1008.27 1008.48 1007.75 1007.24 1006.55 1007.39 1007.50 1006.63 1006.68 1006.84 1006.93 1007.15 1007.32 1007.68 1007.96 1008.40 1008.92 1009.50 1009.87 1010.46 1011.11 1011.82 1012.74 1013.46 1014.25 1015.13 1016.20 1017.49 1018.09 1018.34 1019.10 1019.91 1020.94 1021.71 1022.54 1023.11 1023.87 1024.61 1025.35 1025.97 1026.60 1027.31
1007.60 1006.37 1006.95 1007.42 1006.81 1006.89 1006.72 1007.15 1007.17 1007.37 1007.38 1007.31 1007.39 1007.56 1007.78 1008.30 1008.86 1009.52 1010.07 1010.56 1011.01 1011.55 1012.02 1012.58 1013.35 1014.43 1015.27 1015.68 1016.19 1017.35 1017.78 1018.54 1019.47 1020.32 1021.01 1021.60 1022.32 1022.88 1023.43 1024.16 1024.97 1025.87 1026.41 1027.00
1007.05 1006.64 1006.77 1007.35 1007.07 1007.28 1007.37 1007.35 1007.66 1007.83 1007.93 1008.13 1008.22 1008.34 1008.65 1009.10 1009.77 1010.32 1011.04 1011.74 1012.22 1012.78 1013.23 1013.63 1014.30 1015.31 1016.30 1016.70 1017.32 1017.98 1018.47 1018.88 1019.57 1020.38 1021.23 1021.89 1022.50 1023.24 1023.59 1024.05 1024.58 1025.22 1025.92 1026.47
1006.86 1007.18 1007.03 1007.16 1007.38 1007.85 1007.64 1007.77 1007.80 1008.11 1008.29 1008.68 1008.62 1008.66 1008.86 1009.54 1010.46 1011.10 1011.81 1012.59 1013.05 1013.36 1013.88 1014.42 1015.26 1016.25 1017.16 1017.65 1018.41 1018.91 1019.01 1019.40 1020.25 1020.86 1021.56 1022.19 1022.77 1023.47 1024.16 1024.37 1024.58 1024.90 1025.24 1025.54
1006.69 1006.56 1006.40 1006.18 1006.13 1006.44 1006.69 1006.86 1007.59 1008.42 1008.78 1008.70 1009.11 1009.55 1009.55 1009.79 1010.72 1011.47 1012.41 1013.09 1013.61 1014.20 1014.88 1015.67 1016.54 1017.28 1018.11 1018.58 1019.33 1019.83 1019.56 1019.71 1020.47 1021.37 1021.91 1022.45 1023.03 1023.72 1024.25 1024.73 1025.06 1024.77 1025.02 1025.03
Thickness
5668 5654 5653 5661 5661 5667 5668 5662 5663 5670 5676 5665 5658 5663 5668 5670 5667 5669 5668 5667 5668 5667 5658 5656 5654 5650 5649 5648 5647 5645 5642 5639 5638 5635 5632 5627 5622 5617 5615 5611 5608 5607 5605 5602
5650 5647 5667 5665 5661 5658 5656 5649 5650 5660 5664 5655 5656 5655 5668 5667 5676 5678 5678 5675 5672 5657 5652 5649 5647 5645 5644 5644 5643 5641 5639 5635 5632 5630 5625 5620 5612 5605 5603 5600 5597 5596 5593 5590
5641 5659 5671 5659 5657 5652 5651 5647 5647 5646 5652 5648 5646 5644 5658 5676 5677 5681 5684 5684 5675 5664 5654 5645 5641 5639 5638 5637 5637 5636 5634 5630 5626 5622 5616 5608 5601 5595 5592 5589 5586 5583 5582 5579
5642 5661 5661 5651 5650 5649 5638 5653 5651 5646 5634 5617 5638 5626 5655 5672 5672 5676 5686 5676 5672 5659 5652 5645 5637 5632 5631 5631 5632 5630 5627 5623 5618 5613 5607 5603 5598 5589 5580 5580 5576 5572 5569 5566
5646 5648 5642 5643 5650 5648 5641 5651 5645 5637 5623 5618 5624 5602 5651 5670 5675 5687 5688 5681 5670 5659 5651 5641 5635 5629 5624 5624 5623 5620 5618 5615 5609 5604 5598 5593 5585 5578 5573 5568 5564 5558 5554 5551
5642 5648 5645 5647 5641 5646 5636 5631 5622 5613 5605 5585 5624 5610 5646 5661 5680 5691 5686 5670 5657 5648 5641 5634 5626 5621 5615 5612 5611 5610 5607 5603 5600 5596 5590 5584 5578 5569 5562 5556 5552 5546 5543 5539
5627 5630 5639 5640 5629 5631 5629 5614 5587 5578 5569 5596 5620 5607 5659 5662 5675 5682 5678 5663 5650 5643 5633 5626 5619 5613 5607 5602 5600 5598 5598 5593 5591 5587 5580 5574 5567 5562 5556 5550 5545 5537 5531 5525
5614 5606 5625 5633 5634 5624 5613 5611 5586 5573 5576 5587 5596 5602 5645 5663 5668 5667 5671 5666 5650 5638 5629 5621 5614 5606 5600 5596 5592 5591 5587 5584 5581 5577 5571 5565 5558 5553 5546 5541 5533 5526 5520 5514
5604 5611 5626 5626 5630 5631 5598 5598 5621 5592 5521 5549 5599 5622 5645 5649 5651 5654 5652 5650 5641 5634 5625 5614 5605 5601 5595 5589 5586 5584 5580 5575 5571 5567 5561 5554 5547 5542 5535 5528 5522 5515 5507 5499
5616 5602 5601 5606 5617 5610 5604 5607 5581 5570 5559 5557 5595 5605 5633 5641 5642 5639 5635 5632 5628 5622 5613 5607 5601 5594 5588 5583 5578 5574 5570 5567 5562 5557 5551 5544 5537 5531 5524 5517 5508 5500 5491 5482
5605 5600 5579 5589 5589 5600 5595 5589 5592 5591 5567 5564 5575 5632 5643 5649 5652 5636 5635 5633 5626 5619 5610 5602 5595 5587 5581 5574 5569 5564 5560 5556 5550 5544 5537 5530 5524 5519 5514 5506 5497 5487 5480 5471
5604 5584 5555 5574 5586 5589 5597 5596 5587 5578 5578 5572 5573 5651 5642 5647 5644 5637 5633 5628 5625 5617 5606 5596 5590 5581 5575 5569 5563 5558 5552 5547 5541 5534 5527 5519 5514 5507 5498 5488 5481 5474 5469 5458
5590 5569 5557 5561 5566 5571 5573 5585 5605 5600 5572 5596 5568 5650 5624 5639 5637 5627 5616 5612 5613 5606 5596 5587 5580 5576 5570 5563 5556 5549 5542 5536 5529 5522 5514 5506 5499 5491 5481 5472 5465 5458 5451 5441
5591 5567 5583 5594 5600 5582 5567 5576 5583 5585 5576 5584 5607 5634 5624 5626 5621 5614 5605 5604 5598 5596 5589 5582 5575 5572 5563 5555 5547 5539 5533 5526 5518 5510 5502 5493 5484 5476 5468 5458 5451 5444 5435 5425
5577 5566 5565 5592 5587 5579 5573 5577 5577 5574 5602 5579 5638 5611 5627 5616 5612 5617 5602 5589 5587 5587 5583 5581 5574 5566 5555 5545 5537 5529 5522 5515 5507 5497 5488 5481 5471 5463 5454 5445 5436 5427 5418 5411
5562 5563 5561 5570 5568 5566 5563 5565 5574 5577 5583 5583 5601 5619 5614 5620 5618 5602 5601 5594 5590 5587 5585 5577 5568 5557 5549 5540 5531 5521 5512 5502 5495 5486 5478 5467 5457 5450 5442 5432 5422 5412 5403 5392
5545 5544 5537 5564 5555 5548 5541 5587 5573 5577 5580 5583 5575 5636 5596 5596 5602 5594 5588 5590 5592 5590 5583 5575 5567 5556 5545 5534 5525 5514 5504 5492 5482 5474 5466 5456 5446 5437 5426 5415 5405 5398 5387 5377
5524 5530 5527 5550 5534 5540 5593 5593 5591 5578 5592 5582 5586 5605 5581 5591 5593 5594 5589 5588 5585 5583 5578 5569 5560 5547 5534 5523 5511 5500 5490 5479 5471 5463 5453 5444 5434 5422 5411 5401 5393 5383 5374 5366
5536 5524 5531 5538 5544 5556 5578 5568 5564 5563 5589 5589 5588 5599 5589 5574 5571 5582 5576 5580 5583 5570 5565 5561 5552 5542 5526 5514 5503 5490 5479 5471 5462 5453 5443 5433 5422 5412 5402 5392 5382 5372 5361 5351
5504 5524 5526 5517 5536 5547 5571 5558 5557 5561 5570 5578 5579 5589 5580 5546 5551 5594 5557 5555 5554 5551 5546 5538 5529 5519 5512 5502 5490 5478 5469 5461 5454 5447 5436 5424 5415 5406 5393 5383 5371 5361 5349 5339
5499 5503 5514 5525 5532 5518 5520 5518 5529 5539 5565 5517 5523 5537 5531 5544 5557 5552 5540 5538 5533 5528 5523 5517 5511 5504 5500 5488 5478 5467 5458 5453 5445 5431 5421 5410 5399 5392 5382 5370 5357 5344 5332 5320
5497 5494 5495 5498 5507 5519 5514 5513 5527 5527 5516 5510 5520 5518 5519 5519 5516 5514 5511 5508 5506 5503 5497 5492 5485 5478 5470 5464 5457 5444 5438 5434 5424 5416 5405 5395 5383 5375 5363 5351 5338 5327 5316 5305
5487 5498 5492 5504 5513 5487 5496 5499 5499 5495 5491 5507 5507 5503 5500 5498 5499 5491 5487 5485 5483 5480 5477 5472 5468 5457 5448 5442 5440 5431 5424 5416 5406 5396 5387 5376 5365 5356 5347 5336 5322 5308 5298 5289
5461 5470 5481 5480 5477 5471 5474 5478 5476 5481 5484 5483 5483 5484 5481 5482 5474 5472 5466 5461 5458 5449 5447 5441 5440 5432 5424 5418 5415 5407 5401 5394 5386 5374 5361 5352 5344 5332 5323 5316 5306 5295 5282 5271
5453 5448 5453 5451 5453 5451 5456 5456 5465 5465 5466 5462 5463 5467 5468 5461 5456 5452 5443 5436 5434 5431 5425 5422 5417 5408 5400 5392 5385 5379 5374 5368 5357 5348 5339 5330 5322 5313 5302 5294 5285 5276 5267 5258
5438 5446 5456 5462 5461 5465 5465 5459 5452 5447 5449 5449 5449 5447 5444 5446 5440 5433 5425 5419 5415 5409 5399 5393 5384 5382 5370 5366 5357 5351 5348 5345 5338 5327 5319 5311 5303 5292 5282 5273 5262 5258 5249 5243